Location: Étang Rond
(42.7927°N, 1.0661°E)
Time: 01:20:28
(UTC+00:00)

NOAA 12 - Pass Details

Date: 08 November 2025
Orbit: 793 x 812 km, 98.6° (Epoch: 07 December)

Event Time Altitude Azimuth Distance (km) Brightness Sun altitude
Rises 05:39:22 0° 7° (N) 3,343 7.3 -11.2°
Reaches altitude 10° 05:41:47 10° 2° (N) 2,409 6.5 -10.8°
Maximum altitude 05:46:51 47° 290° (WNW) 1,070 4.3 -9.9°
Drops below altitude 10° 05:51:54 10° 218° (SW) 2,392 6.3 -9.0°
Sets 05:54:18 0° 213° (SSW) 3,318 7.1 -8.6°
